Location: B�di�
(14.6834°N, 3.1047°W)
Time: 15:10:30
(UTC+00:00)

Fermi - Pass Details

Date: 24 January 2020
Orbit: 523 x 541 km, 25.6° (Epoch: 23 February)

Event Time Altitude Azimuth Distance (km) Brightness Sun altitude
Rises 18:43:11 0° 252° (WSW) 2,662 9.8 -9.1°
Reaches altitude 10° 18:45:27 10° 254° (WSW) 1,769 8.1 -9.6°
Maximum altitude 18:49:32 71° 338° (NNW) 558 3.8 -10.5°
Enters shadow 18:52:44 16° 61° (ENE) 1,429 5.3 -11.3°
